Alpena, MI

8:03 PM EDT on July 27, 2017 (GMT -0400)
Alpena County Regional

Weather History for KAPN - December, 2013

Change the Weather History Date:

Friday, December 6, 2013

  Actual Average Record
Temperature  
Mean Temperature 21 °F 28 °F  
Max Temperature 24 °F 35 °F 62 °F (2001)
Min Temperature 18 °F 22 °F -3 °F (1926)
Degree Days  
Heating Degree Days 44 37  
Month to date heating degree days 219 215  
Since 1 July heating degree days 2087 2038  
Moisture  
Dew Point 11 °F    
Average Humidity 65    
Maximum Humidity 80    
Minimum Humidity 50    
Precipitation  
Precipitation T in 0.06 in 0.68 in (1998)
Month to date precipitation 0.59 0.38  
Year to date precipitation 30.06 26.79  
Snow  
Snow T in 0.60 in 7.40 in (1962)
Month to date snowfall 2.4 3.4  
Since 1 July snowfall 5.0 11.5  
Snow Depth T in    
Sea Level Pressure  
Sea Level Pressure 30.21 in    
Wind  
Wind Speed 8 mph (West)    
Max Wind Speed 21 mph    
Max Gust Speed 32 mph    
Visibility 10 miles    
Events Snow    
T = Trace of Precipitation, MM = Missing Value Source: NWS Daily Summary

Daily Weather History Graph

Daily Weather History Graph

Search for Another Location

Airport or City:

Trip Planner

Search our weather history database for the weather conditions in past years. The results will help you decide how hot, cold, wet, or windy it might be!

Date:

Astronomy

Dec. 06, 2013 Rise Set
Actual Time 7:58 AM EST 4:52 PM EST
Civil Twilight 7:24 AM EST 5:26 PM EST
Nautical Twilight 6:47 AM EST 6:02 PM EST
Astronomical Twilight 6:12 AM EST 6:38 PM EST
Moon 10:56 AM EST (12/6) 9:30 PM EST (12/6)
Length of Visible Light 10h 01m
Length of Day
8h 54m
Waxing Crescent, 19% of the Moon is Illuminated
Dec 6
Waxing Crescent
Dec 9
First Quarter
Dec 17
Full
Dec 25
Last Quarter
Jan 1
New

Hourly Weather History & Observations

Time (EST) Temp. Windchill Dew Point Humidity Pressure Visibility Wind Dir Wind Speed Gust Speed Precip Events Conditions
12:04 AM 24.1 °F 11.0 °F 10.9 °F 57% 30.02 in 10.0 mi West 16.1 mph 26.5 mph N/A   Mostly Cloudy
12:14 AM 24.1 °F 11.5 °F 12.0 °F 60% 30.02 in 10.0 mi West 15.0 mph 32.2 mph N/A   Mostly Cloudy
12:54 AM 23.0 °F 12.4 °F 12.9 °F 65% 30.07 in 10.0 mi West 10.4 mph 18.4 mph N/A   Overcast
1:18 AM 23.0 °F 9.6 °F 10.9 °F 60% 30.05 in 10.0 mi West 16.1 mph 26.5 mph N/A   Scattered Clouds
1:41 AM 21.9 °F 10.4 °F 10.9 °F 63% 30.06 in 10.0 mi West 11.5 mph 21.9 mph N/A   Mostly Cloudy
1:54 AM 21.9 °F 12.5 °F 12.0 °F 66% 30.09 in 10.0 mi West 8.1 mph 21.9 mph N/A   Overcast
2:54 AM 21.0 °F 10.6 °F 12.0 °F 68% 30.11 in 10.0 mi West 9.2 mph 20.7 mph N/A   Mostly Cloudy
3:54 AM 21.0 °F 9.9 °F 10.9 °F 65% 30.12 in 10.0 mi West 10.4 mph 17.3 mph N/A   Mostly Cloudy
4:54 AM 19.9 °F 8.6 °F 10.9 °F 68% 30.13 in 10.0 mi West 10.4 mph 24.2 mph N/A   Overcast
5:54 AM 21.0 °F 12.4 °F 10.9 °F 65% 30.16 in 10.0 mi West 6.9 mph 18.4 mph N/A   Overcast
6:54 AM 19.9 °F 12.1 °F 12.0 °F 71% 30.19 in 10.0 mi West 5.8 mph - N/A   Overcast
7:54 AM 19.9 °F 11.1 °F 12.0 °F 71% 30.20 in 9.0 mi West 6.9 mph - 0.00 in Snow Light Snow
8:54 AM 19.9 °F 8.6 °F 12.0 °F 71% 30.23 in 10.0 mi West 10.4 mph - 0.00 in Snow Light Snow
9:54 AM 21.0 °F 8.6 °F 10.9 °F 65% 30.24 in 10.0 mi West 12.7 mph - 0.00 in Snow Light Snow
10:54 AM 21.9 °F 13.4 °F 10.0 °F 60% 30.25 in 10.0 mi West 6.9 mph 18.4 mph 0.00 in   Overcast
11:22 AM 21.9 °F 11.0 °F 10.9 °F 63% 30.22 in 10.0 mi West 10.4 mph 17.3 mph N/A   Overcast
11:54 AM 21.9 °F 11.7 °F 10.9 °F 63% 30.26 in 9.0 mi West 9.2 mph 18.4 mph 0.00 in   Overcast
12:04 PM 23.0 °F 10.6 °F 10.9 °F 60% 30.22 in 10.0 mi West 13.8 mph 19.6 mph N/A   Overcast
12:14 PM 23.0 °F 15.8 °F 10.9 °F 60% 30.23 in 10.0 mi WNW 5.8 mph - N/A   Overcast
12:30 PM 21.9 °F 10.4 °F 10.0 °F 60% 30.23 in 10.0 mi WNW 11.5 mph - N/A   Overcast
12:54 PM 24.1 °F 13.7 °F 9.0 °F 53% 30.25 in 10.0 mi WNW 10.4 mph 16.1 mph N/A   Overcast
1:54 PM 23.0 °F 12.4 °F 8.1 °F 53% 30.25 in 10.0 mi West 10.4 mph 19.6 mph N/A   Mostly Cloudy
2:54 PM 21.9 °F 11.7 °F 8.1 °F 55% 30.24 in 10.0 mi WNW 9.2 mph - N/A   Mostly Cloudy
3:54 PM 21.9 °F 12.5 °F 9.0 °F 58% 30.26 in 10.0 mi West 8.1 mph - N/A   Overcast
4:54 PM 21.0 °F 10.6 °F 10.0 °F 63% 30.27 in 10.0 mi West 9.2 mph - 0.00 in   Overcast
5:54 PM 21.0 °F 11.4 °F 10.9 °F 65% 30.29 in 9.0 mi West 8.1 mph - 0.00 in   Overcast
6:54 PM 21.0 °F 14.6 °F 10.9 °F 65% 30.30 in 10.0 mi Variable 4.6 mph - N/A   Overcast
7:54 PM 19.0 °F 10.0 °F 10.9 °F 71% 30.32 in 10.0 mi West 6.9 mph - N/A   Overcast
8:41 PM 18.0 °F 12.7 °F 10.9 °F 74% 30.27 in 10.0 mi WNW 3.5 mph - N/A   Mostly Cloudy
8:54 PM 18.0 °F - 12.0 °F 78% 30.32 in 10.0 mi Calm Calm - N/A   Overcast
9:54 PM 19.0 °F 12.3 °F 12.9 °F 77% 30.33 in 10.0 mi West 4.6 mph - N/A   Overcast
10:43 PM 19.0 °F 12.3 °F 12.0 °F 74% 30.29 in 10.0 mi WSW 4.6 mph - N/A   Overcast
10:54 PM 19.0 °F 12.3 °F 12.0 °F 74% 30.34 in 10.0 mi WSW 4.6 mph - N/A   Overcast
11:54 PM 19.0 °F 11.1 °F 12.0 °F 74% 30.35 in 10.0 mi WSW 5.8 mph - N/A   Overcast